This is the latest recevied weather packets stored in our database for station/object KE5VT. If no packets are shown the sender has not sent any weather packets the latest 10 day(s).
| Time | Temp. | Humidity | Pressure | Rain* | Wind** | Luminosity | Snow |
|---|---|---|---|---|---|---|---|
| 1787779294 | 29.44° C | 66% | 1012 hPa | 0 mm | - | 52 W/m² | - |
| 1787778988 | 29.44° C | 65% | 1012.2 hPa | 0 mm | - | 62 W/m² | - |
| 1787778684 | 30° C | 64% | 1011.9 hPa | 0 mm | - | 110 W/m² | - |
| 1787778380 | 30° C | 63% | 1012.3 hPa | 0 mm | - | 100 W/m² | - |
| 1787778075 | 29.44° C | 63% | 1012.3 hPa | 0 mm | - | 83 W/m² | - |
| 1787777774 | 30° C | 64% | 1012.1 hPa | 0 mm | - | 80 W/m² | - |
| 1787777472 | 30° C | 62% | 1012.2 hPa | 0 mm | - | 97 W/m² | - |
| 1787777171 | 30.56° C | 62% | 1012.1 hPa | 0 mm | - | 128 W/m² | - |
| 1787776870 | 30.56° C | 61% | 1012.1 hPa | 0 mm | - | 364 W/m² | - |
| 1787776569 | 30° C | 63% | 1012.1 hPa | 0 mm | - | 131 W/m² | - |
| 1787776268 | 30° C | 60% | 1012.1 hPa | 0 mm | - | 107 W/m² | - |
| 1787775966 | 30° C | 62% | 1012.3 hPa | 0 mm | - | 121 W/m² | - |
| 1787775661 | 30° C | 61% | 1012.4 hPa | 0 mm | - | 115 W/m² | - |
| 1787775360 | 30° C | 61% | 1012.4 hPa | 0 mm | - | 112 W/m² | - |
| 1787775055 | 30° C | 62% | 1012.4 hPa | 0 mm | - | 113 W/m² | - |
| 1787774754 | 30° C | 63% | 1012.7 hPa | 0 mm | - | 197 W/m² | - |
| 1787774448 | 30° C | 64% | 1012.5 hPa | 0 mm | - | 105 W/m² | - |
| 1787774143 | 30° C | 63% | 1012.7 hPa | 0 mm | - | 101 W/m² | - |
| 1787773841 | 29.44° C | 63% | 1012.8 hPa | 0 mm | - | 85 W/m² | - |
| 1787773540 | 30° C | 62% | 1012.7 hPa | 0 mm | - | 84 W/m² | - |
| 1787773237 | 30° C | 62% | 1012.6 hPa | 0 mm | - | 86 W/m² | - |
| 1787772932 | 30° C | 62% | 1012.8 hPa | 0 mm | - | 118 W/m² | - |
| 1787772628 | 30.56° C | 61% | 1012.9 hPa | 0 mm | - | 113 W/m² | - |
| 1787772326 | 31.11° C | 59% | 1012.7 hPa | 0 mm | - | 155 W/m² | - |
| 1787772025 | 31.11° C | 59% | 1012.9 hPa | 0 mm | - | 329 W/m² | - |
* Rain latest hour (hover to see other rain measurements)
** Current wind speed in m/s (hover to see current wind gust speed)